Regional Weather Roundup
Issued by NWS

Home | Current Version | Previous Version | Graphics & Text | Print | Product List | Glossary On
Versions: 1 2 3 4 5 6 7 8 9 10 11 12 13 14 15 16 17 18 19 20 21 22 23 24 25 26 27
000
ASUS45 KCYS 200510
RWRWY

WYOMING REGIONAL WEATHER ROUNDUP
NATIONAL WEATHER SERVICE CHEYENNE WY
1000 PM MST THU JAN 19 2017

NOTE:  "FAIR" INDICATES FEW OR NO CLOUDS BELOW 12,000 FEET
WITH NO SIGNIFICANT WEATHER AND/OR OBSTRUCTIONS TO VISIBILITY.

WYZ001-200600-
YELLOWSTONE NATIONAL PARK

CITY           SKY/WX    TMP DP  RH WIND       PRES   REMARKS
LK YELLOWSTONE   N/A     23  21  92 CALM      29.60F
W YELLOWSTONE  NOT AVBL

$$
WYZ002>013-054>058-071-098>099-200600-
NORTHERN WYOMING

CITY           SKY/WX    TMP DP  RH WIND       PRES   REMARKS
JACKSON        CLOUDY    27  25  93 S5        29.62S WCI  21
CODY           FAIR      37  23  56 CALM      29.52F
GREYBULL       CLOUDY    23  18  81 NE5       29.53S WCI  17
WORLAND        CLOUDY    25  22  88 W3        29.52F
SHERIDAN       FAIR      25  20  81 SW10      29.50S WCI  15
BUFFALO        FAIR      35  19  52 W5        29.49F WCI  31
GILLETTE       FAIR      31  24  75 W8        29.47F WCI  23
HULETT         FAIR      30  23  74 MISG      29.47S
NEWCASTLE      FAIR      28  21  74 E10       29.50F WCI  19

$$
WYZ014>020-022>026-101>103-200600-
CENTRAL WYOMING

CITY           SKY/WX    TMP DP  RH WIND       PRES   REMARKS
BIG PINEY      CLOUDY    13  11  92 CALM      29.64F
PINEDALE       FAIR      10  10 100 E3        29.63F
DUBOIS         NOT AVBL
LANDER         CLOUDY    21  15  78 VRB7      29.54S WCI  12
RIVERTON       FAIR      20  13  74 NW6       29.55S WCI  12
CASPER         FAIR      31  24  75 SW23G30   29.51F WCI  18
DOUGLAS        FAIR      32  22  66 W10       29.50F WCI  24

$$
WYZ021-027>030-104>119-200600-
SOUTHERN WYOMING

CITY           SKY/WX    TMP DP  RH WIND       PRES   REMARKS
EVANSTON       LGT SNOW  27  23  85 CALM      29.65F FOG
ROCK SPRINGS   LGT SNOW  22  20  92 W8        29.63F FOG     WCI  12
RAWLINS        CLOUDY    28  22  78 SW13      29.61F WCI  17
LARAMIE        FAIR      20  14  77 W12       29.54F WCI   8
CHEYENNE       FAIR      33  19  56 W13       29.51F WCI  24
TORRINGTON     FAIR      30  20  66 NE5       29.49F WCI  25

$$




USA.gov is the U.S. government's official web portal to all federal, state and local government web resources and services.